Location: *
(28.3744°N, 81.5492°W)
Time: 14:35:11
(UTC+00:00)

Lacrosse 4 Rocket - Pass Details

Date: 15 June 2025
Orbit: 511 x 577 km, 68.0° (Epoch: 15 July)

Event Time Altitude Azimuth Distance (km) Brightness Sun altitude
Rises 03:22:18 0° 343° (NNW) 2,776 6.0 -30.2°
Reaches altitude 10° 03:24:34 10° 348° (NNW) 1,881 4.8 -30.5°
Enters shadow 03:26:32 26° 359° (N) 1,159 3.4 -30.8°
